JES3013 SASA-SABE

Flight info

Callsign JES3013
Flight time N/A
Altitude 37000
Route PONPI4J PONPI UT681 PUBER UL550 ROS UT672 MULTA UW24 SNT SNT9R
Aircraft A320/M-SDE3FGHIRWY/LB1

Departure

Time 2026-04-29 17:52
Airport Martín Miguel de Güemes International Airport (SASA)

Arrival

Time N/A
Airport Aeroparque Jorge Newbery (SABE)
Time Latitude Longitude Altitude Speed Heading
2026-04-29 16:54 -24.84468 -65.47897 4017 ft 0 kts 22°
2026-04-29 17:40 -24.84479 -65.47902 4017 ft 4 kts 21°
2026-04-29 17:40 -24.84503 -65.47909 4017 ft 4 kts 338°
2026-04-29 17:40 -24.84514 -65.47894 4017 ft 4 kts 292°
2026-04-29 17:41 -24.84524 -65.47867 4025 ft 3 kts 292°
2026-04-29 17:41 -24.84525 -65.47864 4017 ft 0 kts 292°
2026-04-29 17:44 -24.84524 -65.47866 4017 ft 2 kts 292°
2026-04-29 17:44 -24.84511 -65.47899 4017 ft 8 kts 294°
2026-04-29 17:45 -24.84503 -65.47976 4017 ft 13 kts 258°
2026-04-29 17:45 -24.84536 -65.48090 4017 ft 18 kts 253°
2026-04-29 17:45 -24.84581 -65.48236 4028 ft 10 kts 249°
2026-04-29 17:45 -24.84582 -65.48239 4017 ft 0 kts 249°
2026-04-29 17:46 -24.84587 -65.48255 4017 ft 5 kts 250°
2026-04-29 17:46 -24.84602 -65.48305 4017 ft 9 kts 251°
2026-04-29 17:47 -24.84651 -65.48369 4017 ft 13 kts 223°
2026-04-29 17:47 -24.84735 -65.48436 4017 ft 17 kts 205°
2026-04-29 17:47 -24.84857 -65.48469 4018 ft 20 kts 191°
2026-04-29 17:47 -24.85008 -65.48502 4017 ft 24 kts 191°
2026-04-29 17:48 -24.85188 -65.48538 4017 ft 28 kts 187°
2026-04-29 17:48 -24.85386 -65.48579 4017 ft 29 kts 192°
2026-04-29 17:48 -24.85578 -65.48621 4019 ft 28 kts 191°
2026-04-29 17:48 -24.85768 -65.48660 4018 ft 28 kts 190°
2026-04-29 17:49 -24.85957 -65.48702 4019 ft 28 kts 191°
2026-04-29 17:49 -24.86149 -65.48743 4017 ft 29 kts 191°
2026-04-29 17:49 -24.86345 -65.48785 4016 ft 30 kts 191°
2026-04-29 17:49 -24.86550 -65.48828 4003 ft 30 kts 191°
2026-04-29 17:50 -24.86756 -65.48872 4010 ft 30 kts 191°
2026-04-29 17:50 -24.86962 -65.48873 4016 ft 30 kts 160°
2026-04-29 17:50 -24.87158 -65.48803 4018 ft 30 kts 166°
2026-04-29 17:50 -24.87315 -65.48863 4018 ft 25 kts 272°
2026-04-29 17:51 -24.87240 -65.48961 4019 ft 13 kts 339°
2026-04-29 17:51 -24.87121 -65.48950 4019 ft 22 kts 10°
2026-04-29 17:51 -24.86833 -65.48890 4003 ft 77 kts 11°
2026-04-29 17:51 -24.86103 -65.48731 4018 ft 137 kts 11°
2026-04-29 17:52 -24.85027 -65.48492 4222 ft 169 kts 14°
2026-04-29 17:52 -24.84256 -65.48257 4680 ft 172 kts 20°
2026-04-29 17:52 -24.82715 -65.47809 5682 ft 173 kts 11°
2026-04-29 17:52 -24.81490 -65.47589 6262 ft 188 kts
2026-04-29 17:53 -24.80139 -65.47361 6454 ft 203 kts 12°
2026-04-29 17:53 -24.78694 -65.47103 6799 ft 213 kts 11°
2026-04-29 17:53 -24.77212 -65.46812 7260 ft 220 kts 17°
2026-04-29 17:53 -24.75894 -65.45996 7834 ft 219 kts 47°
2026-04-29 17:54 -24.75148 -65.44566 8444 ft 215 kts 79°
2026-04-29 17:54 -24.75183 -65.42968 9089 ft 210 kts 110°
2026-04-29 17:54 -24.75885 -65.41581 9539 ft 213 kts 126°
2026-04-29 17:54 -24.76942 -65.40369 9857 ft 229 kts 151°
2026-04-29 17:55 -24.78458 -65.39943 10419 ft 222 kts 184°
2026-04-29 17:55 -24.79943 -65.40252 10927 ft 221 kts 186°
2026-04-29 17:55 -24.81546 -65.40140 11062 ft 246 kts 167°
2026-04-29 17:55 -24.83386 -65.39647 10641 ft 295 kts 168°
2026-04-29 17:56 -24.85493 -65.39252 10739 ft 319 kts 170°
2026-04-29 17:56 -24.87730 -65.38786 10877 ft 337 kts 168°
2026-04-29 17:56 -24.90066 -65.38227 11179 ft 348 kts 167°
2026-04-29 17:56 -24.92415 -65.37635 11653 ft 353 kts 167°
2026-04-29 17:57 -24.94829 -65.37021 12202 ft 357 kts 167°
2026-04-29 17:57 -24.97284 -65.36412 12776 ft 363 kts 168°
2026-04-29 17:57 -24.99757 -65.35809 13304 ft 367 kts 168°
2026-04-29 17:57 -25.01425 -65.35409 13687 ft 372 kts 169°
2026-04-29 17:58 -25.04805 -65.34610 14349 ft 373 kts 169°
2026-04-29 17:58 -25.07358 -65.34000 14746 ft 379 kts 169°
2026-04-29 17:58 -25.09946 -65.33382 15280 ft 381 kts 169°
2026-04-29 17:58 -25.12505 -65.32773 15837 ft 381 kts 166°
2026-04-29 17:59 -25.15093 -65.32142 16413 ft 381 kts 169°
2026-04-29 17:59 -25.17697 -65.31509 16841 ft 386 kts 169°
2026-04-29 17:59 -25.20330 -65.30873 17325 ft 389 kts 169°
2026-04-29 17:59 -25.22987 -65.30232 17827 ft 392 kts 169°
2026-04-29 18:00 -25.25657 -65.29590 18326 ft 395 kts 169°
2026-04-29 18:00 -25.28347 -65.28942 18768 ft 397 kts 170°
2026-04-29 18:00 -25.31047 -65.28293 19258 ft 397 kts 169°
2026-04-29 18:00 -25.33753 -65.27642 19714 ft 399 kts 169°
2026-04-29 18:01 -25.36473 -65.26986 20179 ft 401 kts 169°
2026-04-29 18:01 -25.39206 -65.26327 20639 ft 404 kts 169°
2026-04-29 18:01 -25.41923 -65.25672 21088 ft 406 kts 169°
2026-04-29 18:01 -25.44690 -65.25003 21555 ft 409 kts 169°
2026-04-29 18:02 -25.47475 -65.24330 22013 ft 410 kts 169°
2026-04-29 18:02 -25.50275 -65.23652 22445 ft 413 kts 169°
2026-04-29 18:02 -25.53086 -65.22972 22873 ft 415 kts 169°
2026-04-29 18:02 -25.55917 -65.22286 23304 ft 417 kts 169°
2026-04-29 18:03 -25.58759 -65.21597 23718 ft 419 kts 169°
2026-04-29 18:03 -25.61610 -65.20906 24066 ft 421 kts 169°
2026-04-29 18:03 -25.64474 -65.20209 24410 ft 423 kts 169°
2026-04-29 18:03 -25.67316 -65.19518 24759 ft 425 kts 169°
2026-04-29 18:04 -25.70213 -65.18816 25109 ft 427 kts 169°
2026-04-29 18:04 -25.73127 -65.18109 25459 ft 429 kts 169°
2026-04-29 18:04 -25.76050 -65.17399 25793 ft 432 kts 169°
2026-04-29 18:04 -25.78995 -65.16684 26127 ft 434 kts 169°
2026-04-29 18:05 -25.81951 -65.15964 26460 ft 436 kts 169°
2026-04-29 18:05 -25.84918 -65.15241 26796 ft 438 kts 170°
2026-04-29 18:05 -25.87896 -65.14512 27159 ft 439 kts 170°
2026-04-29 18:05 -25.90883 -65.13783 27506 ft 441 kts 170°
2026-04-29 18:06 -25.93848 -65.13064 27837 ft 443 kts 170°
2026-04-29 18:06 -25.96872 -65.12333 28174 ft 445 kts 170°
2026-04-29 18:06 -25.99903 -65.11598 28500 ft 447 kts 170°
2026-04-29 18:06 -26.02953 -65.10854 28831 ft 450 kts 170°
2026-04-29 18:07 -26.06015 -65.10105 29147 ft 452 kts 170°
2026-04-29 18:07 -26.09091 -65.09355 29564 ft 452 kts 170°
2026-04-29 18:07 -26.12159 -65.08604 30037 ft 450 kts 170°
2026-04-29 18:07 -26.15215 -65.07854 30432 ft 450 kts 170°
2026-04-29 18:08 -26.18233 -65.07110 30808 ft 450 kts 170°
2026-04-29 18:08 -26.21290 -65.06359 31178 ft 450 kts 170°
2026-04-29 18:08 -26.24341 -65.05616 31553 ft 449 kts 170°
2026-04-29 18:08 -26.27396 -65.04873 31922 ft 449 kts 171°
2026-04-29 18:09 -26.30449 -65.04130 32298 ft 449 kts 170°
2026-04-29 18:09 -26.33498 -65.03383 32689 ft 449 kts 170°
2026-04-29 18:09 -26.36550 -65.02634 33083 ft 449 kts 171°
2026-04-29 18:09 -26.39594 -65.01887 33501 ft 448 kts 171°
2026-04-29 18:10 -26.42637 -65.01140 33880 ft 448 kts 171°
2026-04-29 18:10 -26.45679 -65.00390 34236 ft 447 kts 171°
2026-04-29 18:10 -26.48671 -64.99652 34557 ft 446 kts 171°
2026-04-29 18:10 -26.51704 -64.98903 34858 ft 446 kts 171°
2026-04-29 18:11 -26.54731 -64.98157 35152 ft 446 kts 171°
2026-04-29 18:11 -26.57764 -64.97408 35433 ft 446 kts 171°
2026-04-29 18:11 -26.60794 -64.96662 35707 ft 446 kts 171°
2026-04-29 18:11 -26.63817 -64.95921 36008 ft 445 kts 171°
2026-04-29 18:12 -26.66840 -64.95177 36307 ft 444 kts 171°
2026-04-29 18:12 -26.69853 -64.94431 36586 ft 443 kts 171°
2026-04-29 18:12 -26.72826 -64.93694 36824 ft 443 kts 171°
2026-04-29 18:12 -26.75841 -64.92944 36978 ft 444 kts 171°
2026-04-29 18:13 -26.78874 -64.92193 37005 ft 449 kts 171°
2026-04-29 18:13 -26.85034 -64.90678 37007 ft 455 kts 171°
2026-04-29 18:14 -26.91136 -64.88675 37009 ft 458 kts 165°
2026-04-29 18:14 -26.97129 -64.86418 37007 ft 457 kts 165°
2026-04-29 18:15 -27.03156 -64.84152 37008 ft 457 kts 165°
2026-04-29 18:15 -27.09189 -64.81881 37013 ft 457 kts 165°
2026-04-29 18:16 -27.15228 -64.79611 37016 ft 457 kts 166°
2026-04-29 18:16 -27.21225 -64.77366 37020 ft 457 kts 166°
2026-04-29 18:17 -27.27255 -64.75086 37024 ft 457 kts 165°
2026-04-29 18:17 -27.33285 -64.72805 37020 ft 457 kts 166°
2026-04-29 18:18 -27.39316 -64.70514 37012 ft 457 kts 165°
2026-04-29 18:18 -27.45342 -64.68233 37025 ft 457 kts 166°
2026-04-29 18:19 -27.51329 -64.65969 37014 ft 457 kts 164°
2026-04-29 18:19 -27.57027 -64.62672 37016 ft 464 kts 153°
2026-04-29 18:20 -27.62566 -64.58940 37013 ft 464 kts 153°
2026-04-29 18:20 -27.68116 -64.55208 37027 ft 464 kts 154°
2026-04-29 18:21 -27.73665 -64.51478 37022 ft 465 kts 154°
2026-04-29 18:21 -27.79185 -64.47767 37019 ft 465 kts 154°
2026-04-29 18:22 -27.84740 -64.44027 37016 ft 465 kts 154°
2026-04-29 18:22 -27.90300 -64.40274 37034 ft 465 kts 154°
2026-04-29 18:23 -27.95859 -64.36518 37023 ft 466 kts 154°
2026-04-29 18:23 -28.01419 -64.32751 37019 ft 466 kts 154°
2026-04-29 18:24 -28.06940 -64.29010 37018 ft 465 kts 154°
2026-04-29 18:24 -28.12505 -64.25240 37030 ft 466 kts 155°
2026-04-29 18:25 -28.18067 -64.21465 37021 ft 467 kts 154°
2026-04-29 18:25 -28.23627 -64.17671 37015 ft 466 kts 154°
2026-04-29 18:26 -28.29181 -64.13883 37005 ft 466 kts 154°
2026-04-29 18:26 -28.34706 -64.10127 37011 ft 466 kts 154°
2026-04-29 18:27 -28.40264 -64.06345 37019 ft 466 kts 155°
2026-04-29 18:27 -28.45818 -64.02552 37013 ft 466 kts 155°
2026-04-29 18:28 -28.51364 -63.98753 37004 ft 465 kts 155°
2026-04-29 18:28 -28.56906 -63.94962 37003 ft 465 kts 155°
2026-04-29 18:29 -28.62407 -63.91190 37005 ft 465 kts 155°
2026-04-29 18:29 -28.67950 -63.87391 37002 ft 465 kts 155°
2026-04-29 18:30 -28.73491 -63.83579 36994 ft 465 kts 155°
2026-04-29 18:30 -28.79039 -63.79758 36998 ft 466 kts 155°
2026-04-29 18:31 -28.84581 -63.75928 37027 ft 466 kts 155°
2026-04-29 18:31 -28.90070 -63.72105 37015 ft 465 kts 155°
2026-04-29 18:32 -28.95584 -63.68261 37000 ft 463 kts 155°
2026-04-29 18:32 -29.03836 -63.62511 36995 ft 463 kts 155°
2026-04-29 18:33 -29.08406 -63.59328 37014 ft 463 kts 156°
2026-04-29 18:33 -29.14829 -63.54838 37003 ft 462 kts 155°
2026-04-29 18:34 -29.25741 -63.47170 36999 ft 462 kts 156°
2026-04-29 18:35 -29.31208 -63.43328 37019 ft 461 kts 156°
2026-04-29 18:35 -29.36678 -63.39485 37011 ft 462 kts 156°
2026-04-29 18:36 -29.42119 -63.35655 37006 ft 461 kts 156°
2026-04-29 18:36 -29.47587 -63.31815 36992 ft 461 kts 156°
2026-04-29 18:37 -29.53048 -63.27947 37007 ft 461 kts 156°
2026-04-29 18:37 -29.58494 -63.24067 36994 ft 461 kts 156°
2026-04-29 18:38 -29.63949 -63.20189 36993 ft 461 kts 156°
2026-04-29 18:38 -29.69373 -63.16335 36993 ft 462 kts 156°
2026-04-29 18:39 -29.74827 -63.12439 37032 ft 461 kts 156°
2026-04-29 18:39 -29.80251 -63.08568 36990 ft 458 kts 156°
2026-04-29 18:40 -29.85676 -63.04695 36988 ft 459 kts 156°
2026-04-29 18:40 -29.91108 -63.00808 36992 ft 460 kts 156°
2026-04-29 18:41 -30.01905 -62.93071 37002 ft 457 kts 157°
2026-04-29 18:42 -30.07300 -62.89195 37003 ft 457 kts 157°
2026-04-29 18:42 -30.12688 -62.85312 37003 ft 456 kts 157°
2026-04-29 18:43 -30.18036 -62.81461 37012 ft 456 kts 157°
2026-04-29 18:43 -30.23383 -62.77596 36991 ft 452 kts 157°
2026-04-29 18:44 -30.28713 -62.73746 36995 ft 451 kts 157°
2026-04-29 18:44 -30.34052 -62.69898 36991 ft 452 kts 157°
2026-04-29 18:45 -30.39352 -62.66066 37030 ft 452 kts 157°
2026-04-29 18:45 -30.44687 -62.62205 37016 ft 452 kts 157°
2026-04-29 18:46 -30.50020 -62.58340 37017 ft 453 kts 157°
2026-04-29 18:46 -30.55365 -62.54459 37019 ft 453 kts 158°
2026-04-29 18:47 -30.60686 -62.50579 37048 ft 452 kts 158°
2026-04-29 18:47 -30.65998 -62.46706 37033 ft 451 kts 158°
2026-04-29 18:48 -30.71280 -62.42858 37022 ft 451 kts 158°
2026-04-29 18:48 -30.76607 -62.38982 37015 ft 451 kts 158°
2026-04-29 18:49 -30.81918 -62.35108 37006 ft 450 kts 158°
2026-04-29 18:49 -30.87233 -62.31250 37009 ft 451 kts 158°
2026-04-29 18:50 -30.92522 -62.27420 37015 ft 450 kts 158°
2026-04-29 18:50 -30.97843 -62.23547 37013 ft 451 kts 158°
2026-04-29 18:51 -31.03158 -62.19665 37039 ft 451 kts 158°
2026-04-29 18:51 -31.08481 -62.15772 37029 ft 452 kts 158°
2026-04-29 18:52 -31.12911 -62.12534 37018 ft 453 kts 158°
2026-04-29 18:52 -31.18246 -62.08636 37022 ft 452 kts 158°
2026-04-29 18:53 -31.24435 -62.04086 37049 ft 452 kts 157°
2026-04-29 18:53 -31.29730 -62.00156 36995 ft 450 kts 157°
2026-04-29 18:54 -31.34113 -61.96878 36993 ft 449 kts 157°
2026-04-29 18:54 -31.39382 -61.92938 36985 ft 450 kts 157°
2026-04-29 18:55 -31.44655 -61.89019 36981 ft 449 kts 157°
2026-04-29 18:55 -31.49929 -61.85098 37006 ft 450 kts 157°
2026-04-29 18:56 -31.55179 -61.81178 36993 ft 450 kts 157°
2026-04-29 18:56 -31.60460 -61.77222 36990 ft 451 kts 157°
2026-04-29 18:57 -31.65757 -61.73251 37020 ft 452 kts 157°
2026-04-29 18:57 -31.71051 -61.69273 37009 ft 452 kts 157°
2026-04-29 18:58 -31.76342 -61.65290 36994 ft 451 kts 157°
2026-04-29 18:58 -31.81606 -61.61333 36991 ft 453 kts 157°
2026-04-29 18:59 -31.86907 -61.57344 37039 ft 452 kts 158°
2026-04-29 18:59 -31.92178 -61.53365 36977 ft 448 kts 157°
2026-04-29 19:00 -31.97430 -61.49397 36971 ft 449 kts 157°
2026-04-29 19:00 -32.02643 -61.45450 36972 ft 447 kts 158°
2026-04-29 19:01 -32.07885 -61.41471 37007 ft 449 kts 158°
2026-04-29 19:01 -32.13137 -61.37489 37002 ft 449 kts 158°
2026-04-29 19:02 -32.18388 -61.33499 37004 ft 449 kts 157°
2026-04-29 19:02 -32.23640 -61.29500 36993 ft 450 kts 158°
2026-04-29 19:03 -32.28868 -61.25520 36988 ft 450 kts 158°
2026-04-29 19:03 -32.34112 -61.21521 36978 ft 448 kts 158°
2026-04-29 19:04 -32.39360 -61.17520 36978 ft 449 kts 158°
2026-04-29 19:04 -32.44619 -61.13507 36978 ft 450 kts 158°
2026-04-29 19:05 -32.49866 -61.09478 36968 ft 447 kts 158°
2026-04-29 19:05 -32.55035 -61.05497 36963 ft 445 kts 158°
2026-04-29 19:06 -32.60240 -61.01505 36967 ft 446 kts 158°
2026-04-29 19:07 -32.68072 -60.95483 37002 ft 448 kts 158°
2026-04-29 19:07 -32.73297 -60.91454 37000 ft 448 kts 158°
2026-04-29 19:08 -32.78521 -60.87419 36995 ft 448 kts 158°
2026-04-29 19:08 -32.83707 -60.83409 36996 ft 447 kts 158°
2026-04-29 19:09 -32.88922 -60.79369 36990 ft 447 kts 158°
2026-04-29 19:09 -32.94172 -60.75453 36987 ft 443 kts 160°
2026-04-29 19:10 -32.99519 -60.71826 36970 ft 442 kts 161°
2026-04-29 19:10 -33.04887 -60.68240 36949 ft 442 kts 161°
2026-04-29 19:11 -33.10196 -60.64597 36991 ft 444 kts 160°
2026-04-29 19:11 -33.15523 -60.60875 36986 ft 444 kts 160°
2026-04-29 19:12 -33.20848 -60.57157 36974 ft 443 kts 160°
2026-04-29 19:12 -33.26177 -60.53460 37015 ft 443 kts 161°
2026-04-29 19:13 -33.31492 -60.49782 36948 ft 440 kts 161°
2026-04-29 19:13 -33.36778 -60.46106 36939 ft 440 kts 161°
2026-04-29 19:14 -33.42037 -60.42441 36925 ft 441 kts 160°
2026-04-29 19:14 -33.47345 -60.38730 36960 ft 443 kts 160°
2026-04-29 19:15 -33.52675 -60.35000 36948 ft 444 kts 160°
2026-04-29 19:15 -33.58010 -60.31256 36951 ft 444 kts 160°
2026-04-29 19:16 -33.63349 -60.27513 36947 ft 445 kts 160°
2026-04-29 19:16 -33.68693 -60.23763 36738 ft 444 kts 160°
2026-04-29 19:16 -33.71320 -60.21915 36487 ft 443 kts 161°
2026-04-29 19:17 -33.73969 -60.20050 36242 ft 441 kts 161°
2026-04-29 19:17 -33.76612 -60.18186 35988 ft 440 kts 161°
2026-04-29 19:17 -33.79248 -60.16326 35738 ft 439 kts 161°
2026-04-29 19:17 -33.81837 -60.14326 35485 ft 449 kts 154°
2026-04-29 19:18 -33.84243 -60.11846 34797 ft 465 kts 145°
2026-04-29 19:18 -33.85690 -60.09901 34295 ft 477 kts 139°
2026-04-29 19:18 -33.88273 -60.05424 33036 ft 493 kts 134°
2026-04-29 19:18 -33.90161 -60.02006 32576 ft 487 kts 134°
2026-04-29 19:19 -33.92028 -59.98619 32009 ft 484 kts 133°
2026-04-29 19:19 -33.93883 -59.95262 31454 ft 480 kts 133°
2026-04-29 19:19 -33.95710 -59.91972 30905 ft 477 kts 133°
2026-04-29 19:19 -33.97552 -59.88671 30352 ft 474 kts 133°
2026-04-29 19:20 -33.99387 -59.85389 29759 ft 471 kts 131°
2026-04-29 19:20 -34.01212 -59.82119 29194 ft 468 kts 131°
2026-04-29 19:20 -34.03015 -59.78878 28639 ft 464 kts 131°
2026-04-29 19:20 -34.04808 -59.75657 28102 ft 460 kts 131°
2026-04-29 19:21 -34.06576 -59.72480 27574 ft 455 kts 131°
2026-04-29 19:21 -34.07171 -59.71408 27400 ft 454 kts 131°